www.pogodaiklimat.ru
ПОГОДА в Монтгомери
Время
и дата
18:54 26.10
19:30 26.10
19:54 26.10
20:06 26.10
20:18 26.10
20:54 26.10
21:12 26.10
21:54 26.10
22:07 26.10
22:33 26.10
22:54 26.10
23:54 26.10
00:22 27.10
00:30 27.10
00:49 27.10
00:54 27.10
01:21 27.10
01:54 27.10
02:01 27.10
02:11 27.10
02:28 27.10
02:36 27.10
02:54 27.10
03:16 27.10
03:20 27.10
03:30 27.10
03:36 27.10
03:41 27.10
03:52 27.10
03:54 27.10
04:11 27.10
04:39 27.10
04:54 27.10
05:34 27.10
05:54 27.10
06:51 27.10
06:54 27.10
07:11 27.10
07:35 27.10
07:54 27.10
08:31 27.10
08:54 27.10
09:04 27.10
09:54 27.10
10:05 27.10
10:54 27.10
11:36 27.10
11:54 27.10
Ветер
(напр.,м/с)
Видим. Явления Облачность Т
(С)
Тd
(С)
f
(%)
Тe
(С)
Тes
(С)
Комфортность P
(гПа)
Po
(гПа)
Тmin
(С)
Tmax
(С)
R
(мм)
R24
(мм)
S
(см)
штиль 0 16 км 10/10 210 м +9.4 +9.4 100 +8 +8 1019.8 1006.2 +8.9 +9.4 0.3
штиль 0 6 км дымка 10/10 90 м +9.4 +8.9 97 +8 +8 1005.8
штиль 0 5 км дымка 10/10 120 м +9.4 +9.4 100 +8 +8 1019.3 1005.8
штиль 0 6 км дымка 10/10 150 м +9.4 +9.4 100 +8 +8 1005.8
штиль 0 6 км дымка 10/10 120 м +9.4 +9.4 100 +8 +8 1005.8
штиль 0 8 км дымка 10/10 120 м +9.4 +9.4 100 +8 +8 1019.3 1005.8
штиль 0 4 км дымка 10/10 120 м +9.4 +9.4 100 +8 +8 1005.8
штиль 0 3 км дымка 10/10 90 м +9.4 +9.4 100 +8 +8 1019.2 1005.5
штиль 0 4 км дымка 10/10 90 м +9.4 +9.4 100 +8 +8 1005.5
штиль 0 3 км дымка 10/10 90 м +9.4 +9.4 100 +8 +8 1005.8
Ю 1 2 км дымка 10/10 120 м +9.4 +9.4 100 +8 +8 1019.0 1005.5
штиль 0 2 км дымка ?/? +10.0 +10.0 100 +9 +9 1018.6 1005.2
Ю 1 2 км дымка 10/10 90 м +10.0 +10.0 100 +8 +8 1005.2
ЮЗ 1 5 км дымка 10/10 90 м +10.0 +10.0 100 +8 +8 1005.5
штиль 0 6 км дымка 10/10 60 м +10.0 +10.0 100 +9 +9 1005.5
штиль 0 6 км дымка 10/10 60 м +10.0 +10.0 100 +9 +9 1019.0 1005.5 +8.9 +10.0
штиль 0 10 км дымка 10/10 90 м +10.0 +10.0 100 +9 +9 1005.2
Ю 1 11 км 10/10 90 м +10.0 +10.0 100 +8 +8 1018.9 1005.5
Ю 1 11 км 10/10 90 м +10.6 +10.6 100 +9 +9 1005.2
ЮЗ 1 10 км дымка 10/10 90 м +10.6 +10.0 96 +9 +9 1005.5
штиль 0 11 км 10/8 90 м
[Ac]
+10.6 +10.0 96 +10 +10 1005.5
С 2 11 км 10/8 90 м
[Ac]
+10.6 +10.0 96 +8 +8 1005.8
С 1 8 км дымка 10/10 90 м +10.0 +10.0 100 +8 +8 1019.1 1005.5
С 1 3 км дымка 10/10 60 м +10.6 +10.6 100 +8 +8 1005.8
С 1 2 км дымка 10/10 60 м +10.6 +10.6 100 +8 +8 1005.8
С 1 1 км дымка ?/? +10.6 +10.6 100 +8 +8 1006.2
С 2 2 км дымка 10/10 60 м +10.0 +10.0 100 +7 +7 1006.2
С 2 5 км дымка 10/10 60 м +10.0 +10.0 100 +7 +7 1006.2
СВ 1 10 км дымка 10/10 120 м +10.0 +9.0 93 +8 +8 1006.2
С 2 8 км дымка 10/10 120 м +10.0 +9.4 96 +7 +7 1019.8 1006.2
С 2 8 км слабый дождь, дымка 10/10 180 м +9.4 +8.9 97 +6 +6 1006.5
СВ 1 8 км слабый дождь, дымка 10/10 210 м +9.4 +8.9 97 +8 +8 1006.8
СВ 1 11 км 10/10 360 м +9.4 +8.9 97 +8 +8 1020.4 1006.8
СВ 1 14 км 10/10 240 м +9.4 +8.9 97 +8 +8 1007.8
С 1 16 км 10/10 210 м +9.4 +8.9 97 +8 +8 1021.8 1008.2
С 1 16 км 10/8 150 м
[Ac]
+9.0 +8.0 93 +7 +7 1008.2
С 1 16 км 10/8 150 м
[Ac]
+8.9 +8.3 96 +7 +7 1021.7 1008.2 +8.9 +10.6 0.3 1.0
С 1 16 км 10/8 270 м
[Ac]
+8.9 +8.3 96 +7 +7 1008.5
штиль 0 16 км 10/10 300 м +9.4 +8.3 93 +9 +9 1008.8
штиль 0 16 км 10/10 450 м +9.4 +8.3 93 +9 +9 1022.4 1008.8
штиль 0 16 км 10/10 390 м +9.4 +7.8 90 +9 +9 1008.8
С 1 16 км 10/10 390 м +9.4 +6.7 83 +8 +8 1022.6 1009.2
С 1 16 км 10/10 450 м +9.4 +6.7 83 +8 +8 1008.8
СЗ 1 16 км 10/10 420 м +9.4 +6.1 80 +8 +8 1022.4 1008.8
З 1 16 км 10/10 480 м +10.0 +6.1 77 +9 +9 1009.2
штиль 0 16 км 10/10 540 м +10.0 +6.7 80 +9 +9 1022.4 1008.8
В 1 16 км 5/5 660 м
[Ac]
+11.1 +7.2 77 +10 +13 1008.8
нст 1 16 км ясно +11.7 +7.2 74 +11 +17 1021.7 1008.2
Местоположение метеостанции Orange County Airport: широта 41.5092 долгота -74.2650 высота над уровнем моря 111 м.
В архиве по умолчанию представлена погода в Монтгомери за последние 1-2 суток. Обновление информации о фактической погоде в базе происходит ежечасно! Архивные данные за месяц целиком и за предыдущие месяцы Вы можете получить, выбрав интересующий диапазон дат из раскрывающегося списка и нажав кнопку "Ввод!".
Внимание! Архив погоды МЕТАР в базе сайта по станциям, не включенным в климатический монитор, хранится не более 60 дней. Нет смысла пытаться выбрать более раннюю дату.
*Определитесь, кто Вы:
Внимание! Время в таблицах - местное (без учета летнего времени). Для получения всемирного времени необходимо вычесть поправку, которая равна -5 ч.
Смотрите также архив погоды в соседних городах и на ближайших метеорологических станциях:
Партнеры нашего сайта:      
Пояснения к столбцам:
  • Ветер - указаны скорость ветра в м/с - средняя за 10 мин, порывы в срок и между сроками (в фигурных скобках) и направление, откуда дует ветер: С - северный,
  • СВ - северо-восточный, В - восточный, ЮВ - юго-восточный, Ю - южный, ЮЗ - юго-западный, З - западный, СЗ - северо-западный.
  • Видимость - горизонтальная дальность видимости в метрах или километрах. При видимости от 1 до 10 км при отсутствии осадков обычно наблюдается дымка, при ухудшении видимости до 1 км и менее - туман. В сухую погоду видимость может ухудшаться дымом, пылью или мглою.
  • Явления - указаны атмосферные явления, наблюдавшиеся в срок или в последний час перед сроком; фигурными скобками обозначены явления, наблюдавшиеся между сроками (за 1-3 часа до срока); квадратными скобками обозначены град или гололедные отложения с указанием их диаметра в мм.
  • Облачность - указаны через наклонную черту общая и нижняя облачность в баллах и высота нижней границы облаков в метрах; квадратными скобками обозначены формы облаков: Ci - перистые, Cs - перисто-слоистые, Cc - перисто-кучевые, Ac - высококучевые, As - высокослоистые, Sc - слоисто-кучевые, Ns - слоисто-дождевые, Cu - кучевые, Cb - кучево-дождевые. Подробнее классификацию облаков см. в Атласе облаков (PDF).
  • T - Температура воздуха - температура, измеренная на высоте 2 м над землей.
  • Td - Температура точки росы - температура, при понижении до которой содержащийся в воздухе водяной пар достигнет насыщения.
  • f - Относительная влажность воздуха - влажноcть воздуха, измеренная на высоте 2 м над землей.
  • Te - Эффективная температура - температура, которую ощущает одетый по сезону человек в тени. Характеристика душности погоды. При расчете учитывается влияние влажности воздуха и скорости ветра на теплоощущения человека.
  • Tes - Эффективная температура на солнце - температура, которую ощущает человек, с поправкой на солнечный нагрев. Характеристика знойности погоды. Зависит от высоты солнца над горизонтом, облачности и скорости ветра. Ночью, в пасмурную погоду, а также при ветре 12 м/с и более поправка равна нулю.
  • P - Атмосферное давление - приведенное к уровню моря атмосферное давление.
  • Po - Атмосферное давление - измеренное на уровне метеостанции атмосферное давление.
  • Tmin - Минимальная температура - минимум температуры воздуха на высоте 2 м над землей.
  • Tmax - Максимальная температура - максимум температуры воздуха на высоте 2 м над землей.
  • R - Количество осадков - Количество выпавших осадков за период времени, мм. При наведении курсора мыши на число - период времени, за который выпало указанное количество осадков.
  • R24 - Количество осадков - Количество выпавших осадков за 24 часа, мм.
  • S - Снежный покров - Высота снежного покрова, см. При наведении курсора мыши на число - состояние снежного покрова и степень покрытия местности в баллах.